| time (UTC) | temp F | wind direction | speed knots | gust knots | rain 1hr in | rain 24hr in | rain mn in | humidity % | barometer mb |
| 20260504050512 | 36 | 304 | 0.0 | 0.9 | 0.00 | 0.00 | 0.00 | 68 | 1004.8 |
| 20260504050111 | 35 | 304 | 0.0 | 0.0 | 0.00 | 0.00 | 0.00 | 68 | 1005.2 |
| 20260504050017 | 36 | 305 | 0.0 | 1.7 | 0.00 | 0.00 | 0.00 | 68 | 1004.8 |
| 20260504045530 | 36 | 304 | 0.0 | 1.7 | 0.00 | 0.00 | 0.00 | 68 | 1004.9 |
| 20260504045026 | 36 | 304 | 0.0 | 0.0 | 0.00 | 0.00 | 0.00 | 68 | 1004.9 |
| 20260504044549 | 35 | 304 | 0.0 | 0.0 | 0.00 | 0.00 | 0.00 | 69 | 1005.4 |
| 20260504044530 | 36 | 304 | 0.0 | 0.0 | 0.00 | 0.00 | 0.00 | 69 | 1005.0 |
| 20260504044015 | 36 | 304 | 0.0 | 0.0 | 0.00 | 0.00 | 0.00 | 70 | 1005.0 |
| 20260504043528 | 35 | 304 | 0.0 | 0.9 | 0.00 | 0.00 | 0.00 | 70 | 1005.1 |
| 20260504043056 | 35 | 304 | 0.0 | 0.9 | 0.00 | 0.00 | 0.00 | 71 | 1005.4 |
| 20260504043030 | 35 | 304 | 0.0 | 0.9 | 0.00 | 0.00 | 0.00 | 71 | 1005.1 |
| 20260504042513 | 35 | 304 | 0.0 | 0.0 | 0.00 | 0.00 | 0.00 | 71 | 1005.2 |
| 20260504042024 | 35 | 304 | 0.0 | 0.9 | 0.00 | 0.00 | 0.00 | 71 | 1005.2 |
| 20260504041544 | 34 | 304 | 0.0 | 0.9 | 0.00 | 0.00 | 0.00 | 72 | 1005.5 |
| 20260504041527 | 35 | 304 | 0.0 | 0.9 | 0.00 | 0.00 | 0.00 | 72 | 1005.1 |
| 20260504041031 | 35 | 304 | 0.0 | 0.9 | 0.00 | 0.00 | 0.00 | 73 | 1005.3 |
| 20260504040515 | 34 | 304 | 0.0 | 0.0 | 0.00 | 0.00 | 0.00 | 74 | 1005.2 |
| 20260504040037 | 33 | 304 | 0.0 | 0.0 | 0.00 | 0.00 | 0.00 | 75 | 1005.6 |
| 20260504040019 | 34 | 304 | 0.0 | 0.0 | 0.00 | 0.00 | 0.00 | 75 | 1005.2 |
| 20260504035532 | 34 | 304 | 0.0 | 0.0 | 0.00 | 0.00 | 0.00 | 75 | 1005.2 |
| 20260504035017 | 34 | 304 | 0.0 | 0.0 | 0.00 | 0.00 | 0.00 | 74 | 1005.3 |
| 20260504034541 | 34 | 304 | 0.0 | 0.0 | 0.00 | 0.00 | 0.00 | 73 | 1005.6 |
| 20260504034523 | 34 | 304 | 0.0 | 0.0 | 0.00 | 0.00 | 0.00 | 73 | 1005.3 |
| 20260504034032 | 34 | 304 | 0.0 | 0.0 | 0.00 | 0.00 | 0.00 | 73 | 1005.3 |
| 20260504033518 | 35 | 304 | 0.0 | 0.0 | 0.00 | 0.00 | 0.00 | 72 | 1005.3 |
| 20260504033040 | 34 | 304 | 0.0 | 0.0 | 0.00 | 0.00 | 0.00 | 72 | 1005.6 |
| 20260504033021 | 35 | 304 | 0.0 | 0.0 | 0.00 | 0.00 | 0.00 | 72 | 1005.2 |
| 20260504032534 | 35 | 304 | 0.0 | 0.0 | 0.00 | 0.00 | 0.00 | 71 | 1005.2 |
| 20260504032021 | 35 | 304 | 0.0 | 0.9 | 0.00 | 0.00 | 0.00 | 71 | 1005.2 |
| 20260504031555 | 35 | 304 | 0.0 | 0.9 | 0.00 | 0.00 | 0.00 | 70 | 1005.5 |
| 20260504031526 | 35 | 304 | 0.0 | 0.9 | 0.00 | 0.00 | 0.00 | 70 | 1005.2 |
| 20260504031037 | 36 | 304 | 0.0 | 0.0 | 0.00 | 0.00 | 0.00 | 70 | 1005.1 |
| 20260504030523 | 36 | 304 | 0.0 | 0.0 | 0.00 | 0.00 | 0.00 | 69 | 1005.1 |
| 20260504030049 | 35 | 304 | 0.0 | 0.0 | 0.00 | 0.00 | 0.00 | 68 | 1005.5 |
| 20260504030028 | 36 | 304 | 0.0 | 0.0 | 0.00 | 0.00 | 0.00 | 68 | 1005.1 |
| 20260504025512 | 36 | 304 | 0.0 | 0.9 | 0.00 | 0.00 | 0.00 | 68 | 1005.1 |
| 20260504025024 | 36 | 304 | 0.0 | 0.9 | 0.00 | 0.00 | 0.00 | 67 | 1005.1 |
| 20260504024548 | 36 | 304 | 0.0 | 0.0 | 0.00 | 0.00 | 0.00 | 67 | 1005.5 |
| 20260504024528 | 36 | 304 | 0.0 | 0.0 | 0.00 | 0.00 | 0.00 | 67 | 1005.1 |
| 20260504024012 | 36 | 304 | 0.0 | 0.0 | 0.00 | 0.00 | 0.00 | 67 | 1005.1 |
| 20260504023525 | 36 | 304 | 0.0 | 0.0 | 0.00 | 0.00 | 0.00 | 67 | 1005.1 |
| 20260504023050 | 36 | 304 | 0.0 | 0.0 | 0.00 | 0.00 | 0.00 | 66 | 1005.5 |
| 20260504023031 | 37 | 304 | 0.0 | 0.0 | 0.00 | 0.00 | 0.00 | 66 | 1005.2 |
| 20260504022516 | 37 | 304 | 0.0 | 0.0 | 0.00 | 0.00 | 0.00 | 66 | 1005.2 |
| 20260504022011 | 37 | 304 | 0.0 | 0.0 | 0.00 | 0.00 | 0.00 | 65 | 1005.2 |
| 20260504021554 | 36 | 304 | 0.0 | 0.0 | 0.00 | 0.00 | 0.00 | 66 | 1005.6 |
| 20260504021518 | 37 | 304 | 0.0 | 0.0 | 0.00 | 0.00 | 0.00 | 67 | 1005.2 |
| 20260504021025 | 37 | 304 | 0.0 | 0.0 | 0.00 | 0.00 | 0.00 | 68 | 1005.2 |
| 20260504020516 | 37 | 304 | 0.0 | 0.0 | 0.00 | 0.00 | 0.00 | 67 | 1005.2 |
| 20260504020037 | 37 | 304 | 0.0 | 0.0 | 0.00 | 0.00 | 0.00 | 66 | 1005.5 |
| 20260504020020 | 37 | 304 | 0.0 | 0.0 | 0.00 | 0.00 | 0.00 | 66 | 1005.2 |
| 20260504015530 | 38 | 304 | 0.0 | 0.0 | 0.00 | 0.00 | 0.00 | 65 | 1005.2 |
| 20260504015016 | 38 | 304 | 0.0 | 0.0 | 0.00 | 0.00 | 0.00 | 64 | 1005.2 |
| 20260504014553 | 38 | 304 | 0.0 | 0.0 | 0.00 | 0.00 | 0.00 | 62 | 1005.5 |
| 20260504014522 | 38 | 304 | 0.0 | 0.0 | 0.00 | 0.00 | 0.00 | 62 | 1005.1 |
| 20260504014014 | 39 | 304 | 0.0 | 0.0 | 0.00 | 0.00 | 0.00 | 61 | 1005.1 |
| 20260504013525 | 39 | 304 | 0.0 | 0.0 | 0.00 | 0.00 | 0.00 | 60 | 1005.1 |
| 20260504013048 | 39 | 304 | 0.0 | 0.0 | 0.00 | 0.00 | 0.00 | 59 | 1005.4 |
| 20260504013011 | 40 | 304 | 0.0 | 0.0 | 0.00 | 0.00 | 0.00 | 58 | 1005.0 |
| 20260504012518 | 41 | 304 | 0.0 | 0.0 | 0.00 | 0.00 | 0.00 | 58 | 1005.1 |
| 20260504012030 | 41 | 304 | 0.0 | 0.0 | 0.00 | 0.00 | 0.00 | 55 | 1005.1 |
| 20260504011554 | 41 | 304 | 0.0 | 0.0 | 0.00 | 0.00 | 0.00 | 55 | 1005.4 |
| 20260504011516 | 41 | 304 | 0.0 | 0.0 | 0.00 | 0.00 | 0.00 | 55 | 1005.0 |
| 20260504011022 | 42 | 304 | 0.0 | 0.0 | 0.00 | 0.00 | 0.00 | 55 | 1005.0 |
| 20260504010515 | 42 | 304 | 0.0 | 0.9 | 0.00 | 0.00 | 0.00 | 53 | 1005.0 |
| 20260504010114 | 42 | 304 | 0.0 | 1.7 | 0.00 | 0.00 | 0.00 | 52 | 1005.3 |
| 20260504010019 | 42 | 304 | 0.0 | 1.7 | 0.00 | 0.00 | 0.00 | 52 | 1004.9 |
| 20260504005523 | 42 | 304 | 0.9 | 1.7 | 0.00 | 0.00 | 0.00 | 52 | 1004.9 |
| 20260504005016 | 43 | 312 | 0.9 | 2.6 | 0.00 | 0.00 | 0.00 | 51 | 1004.9 |
| 20260504004601 | 42 | 310 | 0.0 | 2.6 | 0.00 | 0.00 | 0.00 | 51 | 1005.2 |
| 20260504004521 | 43 | 316 | 0.9 | 2.6 | 0.00 | 0.00 | 0.00 | 51 | 1004.9 |
| 20260504004024 | 43 | 298 | 0.9 | 3.5 | 0.00 | 0.00 | 0.00 | 50 | 1004.9 |
| 20260504003517 | 43 | 355 | 1.7 | 5.2 | 0.00 | 0.00 | 0.00 | 50 | 1004.8 |
| 20260504003102 | 43 | 298 | 1.7 | 5.2 | 0.00 | 0.00 | 0.00 | 49 | 1005.1 |
| 20260504003023 | 44 | 336 | 1.7 | 5.2 | 0.00 | 0.00 | 0.00 | 50 | 1004.8 |
| 20260504002529 | 44 | 302 | 0.9 | 4.3 | 0.00 | 0.00 | 0.00 | 49 | 1004.7 |
| 20260504002020 | 44 | 323 | 1.7 | 5.2 | 0.00 | 0.00 | 0.00 | 48 | 1004.8 |
| 20260504001604 | 44 | 310 | 0.9 | 5.2 | 0.00 | 0.00 | 0.00 | 48 | 1005.0 |
| 20260504001525 | 44 | 310 | 1.7 | 5.2 | 0.00 | 0.00 | 0.00 | 48 | 1004.8 |
| 20260504001030 | 44 | 322 | 2.6 | 6.1 | 0.00 | 0.00 | 0.00 | 47 | 1004.8 |
| 20260504000522 | 45 | 344 | 2.6 | 6.1 | 0.00 | 0.00 | 0.00 | 47 | 1004.7 |
| 20260504000105 | 44 | 346 | 1.7 | 6.1 | 0.00 | 0.00 | 0.00 | 46 | 1005.0 |
| 20260504000025 | 45 | 331 | 2.6 | 6.1 | 0.00 | 0.00 | 0.00 | 46 | 1004.7 |
| 20260503235530 | 45 | 336 | 1.7 | 6.1 | 0.00 | 0.00 | 0.00 | 46 | 1004.6 |
| 20260503235022 | 45 | 327 | 1.7 | 6.1 | 0.00 | 0.00 | 0.00 | 46 | 1004.6 |
| 20260503234606 | 45 | 353 | 3.5 | 8.7 | 0.00 | 0.00 | 0.00 | 45 | 1005.0 |
| 20260503234528 | 46 | 324 | 3.5 | 8.7 | 0.00 | 0.00 | 0.00 | 45 | 1004.6 |
| 20260503234012 | 46 | 355 | 3.5 | 8.7 | 0.00 | 0.00 | 0.00 | 45 | 1004.7 |
| 20260503233526 | 47 | 314 | 4.3 | 7.8 | 0.00 | 0.00 | 0.00 | 44 | 1004.7 |
| 20260503233107 | 46 | 333 | 2.6 | 7.8 | 0.00 | 0.00 | 0.00 | 44 | 1005.0 |
| 20260503233027 | 47 | 98 | 2.6 | 7.8 | 0.00 | 0.00 | 0.00 | 44 | 1004.6 |
| 20260503232513 | 47 | 19 | 4.3 | 7.0 | 0.00 | 0.00 | 0.00 | 43 | 1004.7 |
| 20260503232022 | 47 | 337 | 3.5 | 9.6 | 0.00 | 0.00 | 0.00 | 43 | 1004.6 |
| 20260503231607 | 47 | 292 | 3.5 | 9.6 | 0.00 | 0.00 | 0.00 | 42 | 1004.8 |
| 20260503231511 | 48 | 33 | 5.2 | 9.6 | 0.00 | 0.00 | 0.00 | 42 | 1004.6 |
| 20260503231015 | 48 | 357 | 4.3 | 7.8 | 0.00 | 0.00 | 0.00 | 42 | 1004.5 |
| 20260503230526 | 48 | 325 | 3.5 | 8.7 | 0.00 | 0.00 | 0.00 | 42 | 1004.6 |
| 20260503230027 | 48 | 341 | 5.2 | 8.7 | 0.00 | 0.08 | 0.00 | 41 | 1004.6 |
| 20260503225513 | 48 | 20 | 3.5 | 10.4 | 0.00 | 0.08 | 0.00 | 41 | 1004.6 |
| 20260503225026 | 49 | 343 | 6.1 | 10.4 | 0.00 | 0.08 | 0.00 | 41 | 1004.6 |
| 20260503224609 | 48 | 336 | 3.5 | 7.8 | 0.00 | 0.02 | 0.00 | 41 | 1004.8 |
| 20260503224512 | 49 | 6 | 3.5 | 7.8 | 0.00 | 0.08 | 0.00 | 41 | 1004.5 |
| 20260503224018 | 49 | 318 | 3.5 | 7.8 | 0.00 | 0.08 | 0.00 | 41 | 1004.5 |
| 20260503223531 | 49 | 310 | 4.3 | 11.3 | 0.00 | 0.08 | 0.00 | 41 | 1004.4 |
| 20260503223110 | 48 | 329 | 6.1 | 11.3 | 0.00 | 0.02 | 0.00 | 41 | 1004.8 |
| 20260503223030 | 49 | 349 | 7.0 | 10.4 | 0.00 | 0.08 | 0.00 | 40 | 1004.5 |
| 20260503222517 | 49 | 322 | 3.5 | 9.6 | 0.00 | 0.08 | 0.00 | 41 | 1004.4 |
| 20260503222029 | 49 | 336 | 5.2 | 11.3 | 0.00 | 0.08 | 0.00 | 41 | 1004.5 |
| 20260503221611 | 48 | 333 | 4.3 | 11.3 | 0.00 | 0.02 | 0.00 | 41 | 1004.7 |
| 20260503221514 | 49 | 351 | 5.2 | 11.3 | 0.00 | 0.08 | 0.00 | 40 | 1004.4 |
| 20260503221021 | 49 | 291 | 5.2 | 12.2 | 0.00 | 0.08 | 0.00 | 40 | 1004.4 |
| 20260503220533 | 50 | 360 | 6.1 | 12.2 | 0.00 | 0.08 | 0.00 | 39 | 1004.4 |
| 20260503220114 | 49 | 299 | 2.6 | 8.7 | 0.00 | 0.02 | 0.00 | 41 | 1004.7 |
| 20260503220016 | 50 | 340 | 3.5 | 8.7 | 0.00 | 0.20 | 0.00 | 40 | 1004.4 |
| 20260503215523 | 50 | 42 | 5.2 | 9.6 | 0.00 | 0.20 | 0.00 | 40 | 1004.4 |
| 20260503215035 | 50 | 327 | 2.6 | 12.2 | 0.00 | 0.20 | 0.00 | 41 | 1004.4 |
| 20260503214521 | 50 | 334 | 6.1 | 11.3 | 0.00 | 0.20 | 0.00 | 40 | 1004.4 |
| 20260503214026 | 50 | 307 | 5.2 | 11.3 | 0.00 | 0.20 | 0.00 | 40 | 1004.4 |
| 20260503213512 | 50 | 315 | 6.1 | 11.3 | 0.00 | 0.20 | 0.00 | 39 | 1004.4 |
| 20260503213018 | 50 | 324 | 3.5 | 8.7 | 0.00 | 0.20 | 0.00 | 40 | 1004.4 |
| 20260503213006 | 49 | 296 | 3.5 | 8.7 | 0.00 | 0.04 | 0.00 | 40 | 1004.7 |
| 20260503212524 | 50 | 307 | 5.2 | 10.4 | 0.00 | 0.20 | 0.00 | 39 | 1004.5 |
| 20260503212030 | 50 | 14 | 4.3 | 12.2 | 0.00 | 0.20 | 0.00 | 40 | 1004.5 |
| 20260503211522 | 50 | 344 | 5.2 | 12.2 | 0.00 | 0.20 | 0.00 | 39 | 1004.5 |
| 20260503211511 | 49 | 340 | 5.2 | 12.2 | 0.00 | 0.04 | 0.00 | 39 | 1004.8 |
| 20260503211026 | 50 | 312 | 4.3 | 13.9 | 0.00 | 0.20 | 0.00 | 40 | 1004.6 |
| 20260503210513 | 50 | 338 | 7.0 | 13.9 | 0.00 | 0.20 | 0.00 | 40 | 1004.5 |
| 20260503210035 | 49 | 355 | 4.3 | 14.8 | 0.00 | 0.08 | 0.00 | 40 | 1004.8 |
| 20260503210025 | 50 | 318 | 4.3 | 14.8 | 0.00 | 0.39 | 0.00 | 40 | 1004.5 |
| 20260503205529 | 50 | 359 | 7.0 | 14.8 | 0.00 | 0.39 | 0.00 | 40 | 1004.5 |
| 20260503205014 | 51 | 283 | 7.8 | 13.0 | 0.00 | 0.39 | 0.00 | 39 | 1004.5 |
| 20260503204526 | 50 | 350 | 6.1 | 12.2 | 0.00 | 0.39 | 0.00 | 39 | 1004.4 |
| 20260503204513 | 50 | 327 | 5.2 | 12.2 | 0.00 | 0.08 | 0.00 | 39 | 1004.7 |
| 20260503204030 | 51 | 345 | 6.1 | 12.2 | 0.00 | 0.39 | 0.00 | 40 | 1004.4 |
| 20260503203514 | 50 | 2 | 7.0 | 12.2 | 0.00 | 0.39 | 0.00 | 39 | 1004.5 |
| 20260503203025 | 50 | 347 | 6.1 | 16.5 | 0.00 | 0.39 | 0.00 | 39 | 1004.4 |
| 20260503203015 | 50 | 351 | 5.2 | 16.5 | 0.00 | 0.08 | 0.00 | 39 | 1004.7 |
| 20260503202531 | 50 | 342 | 6.1 | 16.5 | 0.00 | 0.39 | 0.00 | 38 | 1004.4 |
| 20260503202015 | 51 | 308 | 6.1 | 11.3 | 0.00 | 0.39 | 0.00 | 39 | 1004.4 |
| 20260503201526 | 50 | 323 | 4.3 | 10.4 | 0.00 | 0.39 | 0.00 | 40 | 1004.4 |
| 20260503201518 | 50 | 319 | 4.3 | 10.4 | 0.00 | 0.08 | 0.00 | 40 | 1004.7 |
| 20260503201017 | 50 | 12 | 6.1 | 10.4 | 0.00 | 0.39 | 0.00 | 40 | 1004.4 |
| 20260503200523 | 50 | 4 | 5.2 | 10.4 | 0.00 | 0.39 | 0.00 | 39 | 1004.4 |
| 20260503200034 | 50 | 321 | 5.2 | 12.2 | 0.00 | 0.39 | 0.00 | 40 | 1004.4 |
| 20260503200020 | 49 | 347 | 4.3 | 12.2 | 0.00 | 0.08 | 0.00 | 40 | 1004.7 |
| 20260503195519 | 50 | 348 | 7.0 | 12.2 | 0.00 | 0.39 | 0.00 | 40 | 1004.4 |
| 20260503195024 | 50 | 300 | 4.3 | 12.2 | 0.00 | 0.39 | 0.00 | 39 | 1004.4 |
| 20260503194536 | 49 | 353 | 5.2 | 13.0 | 0.00 | 0.39 | 0.00 | 40 | 1004.3 |
| 20260503194522 | 49 | 327 | 5.2 | 13.0 | 0.00 | 0.08 | 0.00 | 40 | 1004.6 |
| 20260503194022 | 50 | 317 | 7.0 | 13.0 | 0.00 | 0.39 | 0.00 | 40 | 1004.2 |
| 20260503193527 | 50 | 318 | 4.3 | 9.6 | 0.00 | 0.39 | 0.00 | 42 | 1004.3 |
| 20260503193036 | 49 | 334 | 6.1 | 14.8 | 0.00 | 0.39 | 0.00 | 41 | 1004.3 |
| 20260503193023 | 49 | 353 | 6.1 | 14.8 | 0.00 | 0.08 | 0.00 | 41 | 1004.6 |
| 20260503192522 | 49 | 337 | 6.1 | 14.8 | 0.00 | 0.39 | 0.00 | 41 | 1004.3 |
| 20260503192026 | 49 | 286 | 5.2 | 13.9 | 0.00 | 0.39 | 0.00 | 41 | 1004.4 |
| 20260503191537 | 49 | 299 | 4.3 | 13.9 | 0.00 | 0.08 | 0.00 | 41 | 1004.6 |
| 20260503191511 | 49 | 350 | 3.5 | 13.9 | 0.00 | 0.39 | 0.00 | 41 | 1004.3 |
| 20260503191023 | 49 | 14 | 3.5 | 9.6 | 0.00 | 0.39 | 0.00 | 39 | 1004.5 |
| 20260503190529 | 50 | 343 | 4.3 | 9.6 | 0.00 | 0.39 | 0.00 | 39 | 1004.5 |
| 20260503190045 | 49 | 315 | 5.2 | 11.3 | 0.00 | 0.08 | 0.00 | 40 | 1004.8 |
| 20260503190013 | 50 | 314 | 6.1 | 11.3 | 0.00 | 0.39 | 0.00 | 40 | 1004.5 |
| 20260503185524 | 50 | 302 | 5.2 | 12.2 | 0.00 | 0.39 | 0.00 | 40 | 1004.4 |
| 20260503185027 | 49 | 323 | 6.1 | 13.0 | 0.00 | 0.39 | 0.00 | 40 | 1004.4 |
| 20260503184537 | 49 | 1 | 7.8 | 13.0 | 0.00 | 0.08 | 0.00 | 40 | 1004.7 |
| 20260503184512 | 50 | 303 | 7.8 | 13.0 | 0.00 | 0.39 | 0.00 | 40 | 1004.4 |
| 20260503184023 | 50 | 319 | 6.1 | 13.0 | 0.00 | 0.39 | 0.00 | 40 | 1004.4 |
| 20260503183529 | 50 | 301 | 6.1 | 13.0 | 0.00 | 0.39 | 0.00 | 40 | 1004.6 |
| 20260503183040 | 50 | 320 | 6.1 | 13.0 | 0.00 | 0.08 | 0.00 | 39 | 1004.9 |
| 20260503183012 | 50 | 313 | 5.2 | 13.0 | 0.00 | 0.39 | 0.00 | 39 | 1004.6 |
| 20260503182524 | 50 | 333 | 7.8 | 13.0 | 0.00 | 0.39 | 0.00 | 39 | 1004.5 |
| 20260503182026 | 51 | 350 | 5.2 | 14.8 | 0.00 | 0.39 | 0.00 | 40 | 1004.6 |
| 20260503181538 | 50 | 324 | 4.3 | 14.8 | 0.00 | 0.08 | 0.00 | 40 | 1004.8 |
| 20260503181512 | 50 | 307 | 3.5 | 14.8 | 0.00 | 0.39 | 0.00 | 40 | 1004.5 |
| 20260503181022 | 50 | 308 | 5.2 | 9.6 | 0.00 | 0.39 | 0.00 | 39 | 1004.6 |
| 20260503180528 | 50 | 336 | 4.3 | 12.2 | 0.00 | 0.39 | 0.00 | 41 | 1004.7 |
| 20260503180037 | 50 | 327 | 5.2 | 12.2 | 0.00 | 0.39 | 0.00 | 39 | 1004.8 |
| 20260503180025 | 49 | 320 | 4.3 | 12.2 | 0.00 | 0.08 | 0.00 | 39 | 1005.2 |
| 20260503175523 | 50 | 316 | 5.2 | 12.2 | 0.00 | 0.39 | 0.00 | 41 | 1004.7 |
| 20260503175028 | 50 | 327 | 5.2 | 11.3 | 0.00 | 0.39 | 0.00 | 39 | 1004.7 |
| 20260503174540 | 50 | 1 | 4.3 | 10.4 | 0.00 | 0.08 | 0.00 | 40 | 1005.0 |
| 20260503174513 | 50 | 305 | 5.2 | 13.9 | 0.00 | 0.39 | 0.00 | 39 | 1004.7 |
| 20260503174025 | 50 | 319 | 5.2 | 13.9 | 0.00 | 0.39 | 0.00 | 40 | 1004.7 |